| time (UTC) | temp F | wind direction | speed MPH | gust MPH | rain 1hr in | rain 24hr in | rain mn in | humidity % | barometer mb |
| 20260510174552 | 70 | 150 | 1.0 | 9.0 | 0.00 | 0.28 | 0.01 | 65 | 1011.3 |
| 20260510173048 | 70 | 133 | 2.0 | 9.0 | 0.00 | 0.28 | 0.01 | 67 | 1011.2 |
| 20260510171551 | 70 | 143 | 1.0 | 9.0 | 0.00 | 0.28 | 0.01 | 69 | 1011.2 |
| 20260510170054 | 68 | 152 | 5.0 | 10.0 | 0.00 | 0.28 | 0.01 | 69 | 1011.5 |
| 20260510164543 | 67 | 169 | 1.0 | 5.0 | 0.00 | 0.28 | 0.01 | 73 | 1011.7 |
| 20260510163038 | 66 | 206 | 1.0 | 8.0 | 0.00 | 0.28 | 0.01 | 74 | 1011.7 |
| 20260510161537 | 65 | 141 | 1.0 | 9.0 | 0.00 | 0.28 | 0.01 | 76 | 1011.9 |
| 20260510160038 | 64 | 135 | 2.0 | 6.0 | 0.00 | 0.28 | 0.01 | 76 | 1012.1 |
| 20260510154530 | 63 | 173 | 2.0 | 6.0 | 0.00 | 0.28 | 0.01 | 78 | 1011.9 |
| 20260510153033 | 62 | 172 | 2.0 | 8.0 | 0.00 | 0.28 | 0.01 | 80 | 1012.2 |
| 20260510151522 | 61 | 129 | 4.0 | 7.0 | 0.01 | 0.28 | 0.01 | 82 | 1012.1 |
| 20260510150032 | 60 | 162 | 2.0 | 6.0 | 0.01 | 0.28 | 0.01 | 83 | 1012.2 |
| 20260510144521 | 59 | 160 | 2.0 | 5.0 | 0.01 | 0.28 | 0.01 | 84 | 1012.4 |
| 20260510143019 | 58 | 165 | 0.0 | 5.0 | 0.01 | 0.28 | 0.01 | 86 | 1012.1 |
| 20260510141523 | 57 | 170 | 2.0 | 5.0 | 0.00 | 0.27 | 0.00 | 87 | 1012.2 |
| 20260510140007 | 56 | 176 | 2.0 | 5.0 | 0.00 | 0.27 | 0.00 | 91 | 1012.2 |
| 20260510134505 | 55 | 126 | 2.0 | 4.0 | 0.00 | 0.27 | 0.00 | 92 | 1012.2 |
| 20260510133100 | 54 | 83 | 0.0 | 2.0 | 0.00 | 0.27 | 0.00 | 94 | 1012.2 |
| 20260510131558 | 53 | 83 | 1.0 | 3.0 | 0.00 | 0.27 | 0.00 | 95 | 1012.2 |
| 20260510130056 | 53 | 33 | 0.0 | 2.0 | 0.00 | 0.27 | 0.00 | 96 | 1011.8 |
| 20260510124600 | 53 | 33 | 0.0 | 2.0 | 0.00 | 0.27 | 0.00 | 96 | 1011.8 |
| 20260510123054 | 52 | 33 | 0.0 | 1.0 | 0.00 | 0.27 | 0.00 | 97 | 1011.8 |
| 20260510121550 | 52 | 33 | 0.0 | 2.0 | 0.00 | 0.27 | 0.00 | 96 | 1011.8 |
| 20260510120049 | 52 | 25 | 0.0 | 2.0 | 0.00 | 0.27 | 0.00 | 96 | 1011.5 |
| 20260510114547 | 51 | 25 | 0.0 | 2.0 | 0.00 | 0.27 | 0.00 | 96 | 1011.1 |
| 20260510113048 | 51 | 25 | 0.0 | 1.0 | 0.00 | 0.27 | 0.00 | 97 | 1011.3 |
| 20260510111544 | 51 | 25 | 0.0 | 2.0 | 0.00 | 0.27 | 0.00 | 97 | 1011.1 |
| 20260510110044 | 51 | 25 | 0.0 | 0.0 | 0.00 | 0.27 | 0.00 | 96 | 1011.0 |
| 20260510104544 | 50 | 25 | 0.0 | 0.0 | 0.00 | 0.27 | 0.00 | 96 | 1010.7 |
| 20260510103050 | 51 | 25 | 0.0 | 0.0 | 0.00 | 0.27 | 0.00 | 96 | 1010.7 |
| 20260510101545 | 51 | 25 | 0.0 | 0.0 | 0.00 | 0.27 | 0.00 | 96 | 1010.7 |
| 20260510100041 | 50 | 25 | 0.0 | 2.0 | 0.00 | 0.27 | 0.00 | 96 | 1010.7 |
| 20260510094545 | 50 | 25 | 0.0 | 0.0 | 0.00 | 0.27 | 0.00 | 96 | 1010.6 |
| 20260510093040 | 50 | 25 | 0.0 | 2.0 | 0.00 | 0.27 | 0.00 | 96 | 1010.5 |
| 20260510091539 | 51 | 25 | 0.0 | 0.0 | 0.00 | 0.27 | 0.00 | 96 | 1010.7 |
| 20260510090042 | 51 | 25 | 0.0 | 2.0 | 0.00 | 0.27 | 0.00 | 96 | 1010.8 |
| 20260510084538 | 51 | 25 | 0.0 | 2.0 | 0.00 | 0.27 | 0.00 | 96 | 1011.0 |
| 20260510083037 | 51 | 25 | 0.0 | 0.0 | 0.00 | 0.27 | 0.00 | 96 | 1011.0 |
| 20260510081542 | 51 | 25 | 0.0 | 2.0 | 0.00 | 0.27 | 0.00 | 96 | 1011.0 |
| 20260510080039 | 51 | 32 | 2.0 | 6.0 | 0.00 | 0.27 | 0.00 | 96 | 1011.0 |
| 20260510074533 | 51 | 352 | 1.0 | 5.0 | 0.00 | 0.27 | 0.00 | 96 | 1010.8 |
| 20260510073031 | 51 | 187 | 0.0 | 0.0 | 0.00 | 0.27 | 0.00 | 96 | 1010.1 |
| 20260510071531 | 51 | 187 | 0.0 | 0.0 | 0.00 | 0.27 | 0.00 | 96 | 1010.2 |
| 20260510070034 | 52 | 187 | 0.0 | 0.0 | 0.00 | 0.27 | 0.00 | 96 | 1010.4 |
| 20260510064528 | 52 | 187 | 0.0 | 0.0 | 0.00 | 0.28 | 0.00 | 96 | 1010.3 |
| 20260510063029 | 52 | 187 | 0.0 | 0.0 | 0.00 | 0.28 | 0.00 | 96 | 1010.4 |
| 20260510061529 | 52 | 187 | 0.0 | 0.0 | 0.00 | 0.28 | 0.00 | 96 | 1010.3 |
| 20260510060026 | 52 | 187 | 0.0 | 0.0 | 0.00 | 0.28 | 0.00 | 96 | 1010.3 |
| 20260510054528 | 52 | 187 | 0.0 | 0.0 | 0.00 | 0.28 | 0.00 | 96 | 1010.0 |
| 20260510053023 | 52 | 187 | 0.0 | 0.0 | 0.00 | 0.28 | 0.00 | 96 | 1010.1 |
| 20260510051531 | 52 | 187 | 0.0 | 0.0 | 0.00 | 0.28 | 0.00 | 96 | 1010.1 |
| 20260510050022 | 52 | 187 | 0.0 | 0.0 | 0.00 | 0.28 | 0.00 | 96 | 1010.2 |
| 20260510044522 | 52 | 187 | 0.0 | 0.0 | 0.00 | 0.28 | 0.00 | 96 | 1010.3 |
| 20260510043023 | 52 | 187 | 0.0 | 0.0 | 0.00 | 0.28 | 0.00 | 96 | 1010.3 |
| 20260510041519 | 51 | 187 | 0.0 | 0.0 | 0.00 | 0.28 | 0.00 | 96 | 1010.4 |
| 20260510040018 | 51 | 187 | 0.0 | 0.0 | 0.00 | 0.28 | 0.00 | 96 | 1010.4 |
| 20260510034520 | 51 | 187 | 0.0 | 0.0 | 0.00 | 0.28 | 0.28 | 96 | 1010.2 |
| 20260510033018 | 51 | 187 | 0.0 | 0.0 | 0.00 | 0.28 | 0.28 | 96 | 1010.1 |
| 20260510031517 | 51 | 187 | 0.0 | 0.0 | 0.00 | 0.28 | 0.28 | 96 | 1009.9 |
| 20260510030016 | 50 | 187 | 0.0 | 1.0 | 0.00 | 0.28 | 0.28 | 96 | 1009.8 |
| 20260510024516 | 50 | 187 | 0.0 | 0.0 | 0.00 | 0.28 | 0.28 | 95 | 1010.1 |
| 20260510023016 | 49 | 187 | 0.0 | 0.0 | 0.00 | 0.28 | 0.28 | 95 | 1010.2 |
| 20260510021520 | 50 | 187 | 0.0 | 0.0 | 0.00 | 0.28 | 0.28 | 94 | 1010.1 |
| 20260510020014 | 50 | 187 | 0.0 | 0.0 | 0.00 | 0.28 | 0.28 | 94 | 1010.0 |
| 20260510014515 | 50 | 187 | 0.0 | 0.0 | 0.00 | 0.28 | 0.28 | 94 | 1010.0 |
| 20260510013014 | 50 | 187 | 0.0 | 0.0 | 0.00 | 0.28 | 0.28 | 94 | 1010.1 |
| 20260510011513 | 51 | 187 | 0.0 | 0.0 | 0.00 | 0.28 | 0.28 | 93 | 1009.9 |
| 20260510010012 | 51 | 187 | 0.0 | 0.0 | 0.00 | 0.28 | 0.28 | 93 | 1009.6 |
| 20260510004511 | 52 | 187 | 0.0 | 0.0 | 0.00 | 0.28 | 0.28 | 93 | 1009.5 |
| 20260510003012 | 52 | 187 | 0.0 | 0.0 | 0.00 | 0.28 | 0.28 | 93 | 1009.3 |
| 20260510001510 | 53 | 187 | 0.0 | 0.0 | 0.00 | 0.28 | 0.28 | 93 | 1009.5 |
| 20260510000018 | 54 | 187 | 0.0 | 0.0 | 0.00 | 0.28 | 0.28 | 93 | 1009.4 |
| 20260509234510 | 54 | 187 | 0.0 | 0.0 | 0.00 | 0.28 | 0.28 | 93 | 1009.2 |
| 20260509233008 | 54 | 187 | 0.0 | 1.0 | 0.00 | 0.28 | 0.28 | 93 | 1009.0 |
| 20260509231507 | 54 | 187 | 0.0 | 5.0 | 0.00 | 0.28 | 0.28 | 93 | 1009.1 |
| 20260509230006 | 54 | 166 | 0.0 | 3.0 | 0.00 | 0.28 | 0.28 | 93 | 1009.0 |
| 20260509224504 | 55 | 167 | 1.0 | 5.0 | 0.00 | 0.28 | 0.28 | 93 | 1009.2 |
| 20260509223005 | 54 | 208 | 0.0 | 2.0 | 0.00 | 0.28 | 0.28 | 94 | 1009.5 |
| 20260509221504 | 54 | 208 | 0.0 | 3.0 | 0.02 | 0.28 | 0.28 | 93 | 1009.3 |
| 20260509220006 | 54 | 163 | 1.0 | 6.0 | 0.06 | 0.28 | 0.28 | 94 | 1009.4 |
| 20260509214501 | 54 | 52 | 0.0 | 2.0 | 0.09 | 0.28 | 0.28 | 94 | 1009.4 |
| 20260509213101 | 54 | 52 | 0.0 | 2.0 | 0.14 | 0.28 | 0.28 | 93 | 1009.7 |
| 20260509211602 | 54 | 52 | 0.0 | 1.0 | 0.14 | 0.26 | 0.26 | 93 | 1009.7 |
| 20260509210109 | 54 | 52 | 0.0 | 2.0 | 0.12 | 0.22 | 0.22 | 93 | 1009.6 |
| 20260509204558 | 54 | 52 | 0.0 | 0.0 | 0.12 | 0.19 | 0.19 | 93 | 1009.5 |
| 20260509203058 | 54 | 52 | 0.0 | 0.0 | 0.10 | 0.14 | 0.14 | 92 | 1009.6 |
| 20260509201558 | 54 | 52 | 0.0 | 2.0 | 0.08 | 0.12 | 0.12 | 91 | 1009.8 |
| 20260509200056 | 55 | 52 | 0.0 | 3.0 | 0.06 | 0.09 | 0.09 | 90 | 1009.9 |
| 20260509194555 | 55 | 29 | 0.0 | 2.0 | 0.04 | 0.07 | 0.07 | 88 | 1010.2 |
| 20260509193054 | 56 | 29 | 0.0 | 2.0 | 0.01 | 0.04 | 0.04 | 88 | 1010.1 |
| 20260509191555 | 56 | 54 | 0.0 | 1.0 | 0.02 | 0.04 | 0.04 | 89 | 1010.0 |
| 20260509190055 | 56 | 54 | 0.0 | 0.0 | 0.02 | 0.03 | 0.03 | 88 | 1010.0 |
| 20260509184553 | 56 | 54 | 0.0 | 2.0 | 0.02 | 0.03 | 0.03 | 85 | 1009.8 |
| 20260509183053 | 57 | 53 | 0.0 | 8.0 | 0.01 | 0.02 | 0.02 | 81 | 1010.4 |
| 20260509181550 | 59 | 97 | 0.0 | 6.0 | 0.01 | 0.02 | 0.02 | 78 | 1010.8 |
| 20260509180050 | 60 | 101 | 0.0 | 4.0 | 0.00 | 0.01 | 0.01 | 73 | 1010.7 |